sat.trackr.live / text

‹ back to catalog

STARLINK-1482

NORAD 45773 · 2020-038AV

PAYLOAD ACTIVE UNKNOWN

§ Identity

Operator
Country
US
Launch date
2020-06-13
Launch site
AFETR
Launch vehicle
Mass (kg)
RCS (m²)

Purposes: comms

External: N2YO · Heavens-Above · Gunter

§ Orbital elements

Epoch: 2026-05-25T03:16:22.698048Z

Period
93.72 min
Inclination
53.1575°
Eccentricity
0.0004648
Mean motion
15.36555658 rev/d
Perigee alt
453.1 km
Apogee alt
459.5 km
Semi-major
6,834.4 km
B*
6.9413e-4
RAAN
194.2063°
Arg perigee
343.9328°
Mean anomaly
16.1528°
Rev number
32,857

§ Raw data

STARLINK-14821 45773U 20038AV  26145.13637382  .00024830  00000+0  69413-3 0  99922 45773  53.1575 194.2063 0004648 343.9328  16.1528 15.36555658328570

JSON: /api/v1/satellites/45773 · /tle

For live sub-satellite position, see the globe view (requires WebGL).

§ Visibility from observer

Set your observer location to see the next 7 days of passes ≥ 10°. The values pass through the URL so the page stays shareable.

No JS? Fill the form by hand. The geolocation button needs JavaScript.